• Processing (Info)

  • MPEC 2017-V51 : 2017 VW1

    The following Minor Planet Electronic Circular may be linked-to from your own Web pages, but must not otherwise be redistributed electronically.

    A form allowing access to any MPEC is at the bottom of this page.


    Read MPEC 2017-V50 Read MPEC 2017-V52


    M.P.E.C. 2017-V51                                Issued 2017 Nov. 13, 03:15 UT
    
         The Minor Planet Electronic Circulars contain information on unusual
             minor planets and routine data on comets.  They are published
        on behalf of Division F of the International Astronomical Union by the
              Minor Planet Center, Smithsonian Astrophysical Observatory,
                              Cambridge, MA 02138, U.S.A.
    
                 Prepared using the Tamkin Foundation Computer Network
    
                                  MPC@CFA.HARVARD.EDU
                URL https://www.minorplanetcenter.net/    ISSN 1523-6714
    
                                       2017 VW1
    
    Observations:
         K17V01W* C2017 11 09.26897 01 38 11.17 +46 06 27.5                UEV051G96
         K17V01W  C2017 11 09.27942 01 38 09.95 +46 05 52.7          20.0 GUEV051G96
         K17V01W  C2017 11 09.28462 01 38 09.44 +46 05 36.1          19.7 GUEV051G96
         K17V01W  C2017 11 09.30699 01 38 07.36 +46 04 22.3          20.3 GUEV051G96
         K17V01W  C2017 11 09.30813 01 38 07.27 +46 04 18.5          20.1 GUEV051G96
         K17V01W  C2017 11 09.30933 01 38 07.17 +46 04 14.4          20.2 GUEV051G96
         K17V01W  C2017 11 09.31110 01 38 06.98 +46 04 09.0          20.2 GUEV051G96
         K17V01W  C2017 11 09.43288301 37 56.11 +45 57 24.1          20.0 GUEV051H01
         K17V01W  C2017 11 09.43986401 37 55.52 +45 57 00.8          20.4 GUEV051H01
         K17V01W  C2017 11 09.44443701 37 55.15 +45 56 45.8          20.0 GUEV051H01
         K17V01W  C2017 11 09.45367301 37 54.37 +45 56 15.1          20.2 GUEV051H01
         K17V01W KC2017 11 10.17447801 37 00.23 +45 17 44.7          20.3 GUEV051V03
         K17V01W KC2017 11 10.17891301 36 59.80 +45 17 29.8          20.2 GUEV051V03
         K17V01W KC2017 11 10.18374001 36 59.46 +45 17 15.0          20.0 GUEV051V03
         K17V01W KC2017 11 10.19841101 36 57.54 +45 16 27.8          20.1 VuEV051H21
         K17V01W KC2017 11 10.20243901 36 57.20 +45 16 15.0          20.2 VuEV051H21
         K17V01W  C2017 11 10.20370201 36 57.61 +45 16 12.9          19.8 GUEV051H01
         K17V01W KC2017 11 10.20608701 36 56.88 +45 16 03.1          20.2 VuEV051H21
         K17V01W  C2017 11 10.20749401 36 57.29 +45 16 00.9          19.8 GUEV051H01
         K17V01W  C2017 11 10.21999201 36 56.22 +45 15 21.2          19.9 GUEV051H01
         K17V01W  C2017 11 10.23315601 36 55.09 +45 14 39.3          19.8 GUEV051H01
         K17V01W  C2017 11 11.14484 01 35 51.06 +44 26 48.6          20.4 GUEV051I52
         K17V01W KC2017 11 11.14530 01 35 50.87 +44 26 48.8                oEV051711
         K17V01W  C2017 11 11.14560 01 35 51.04 +44 26 46.1                UEV051I52
         K17V01W  C2017 11 11.14636 01 35 50.94 +44 26 43.8                UEV051I52
         K17V01W  C2017 11 11.14781 01 35 50.77 +44 26 39.3                UEV051I52
         K17V01W KC2017 11 11.14855 01 35 50.60 +44 26 38.7                oEV051711
         K17V01W KC2017 11 11.15179 01 35 50.35 +44 26 28.7                oEV051711
         K17V01W  C2017 11 11.22786 01 35 44.62 +44 22 32.4          20.2 GUEV051G96
         K17V01W  C2017 11 11.23375 01 35 44.19 +44 22 14.3          20.0 GUEV051G96
         K17V01W  C2017 11 11.23973 01 35 43.71 +44 21 55.9          20.0 GUEV051G96
         K17V01W  C2017 11 11.24526 01 35 43.30 +44 21 38.6          20.2 GUEV051G96
         K17V01W  C2017 11 12.14076 01 34 47.30 +43 35 51.5          20.1 GUEV051I52
         K17V01W  C2017 11 12.14152 01 34 47.23 +43 35 48.9          20.2 GUEV051I52
         K17V01W  C2017 11 12.14228 01 34 47.18 +43 35 46.8          20.0 GUEV051I52
         K17V01W  C2017 11 12.14304 01 34 47.11 +43 35 44.4          20.1 GUEV051I52
         K17V01W KC2017 11 12.15866 01 34 45.88 +43 34 59.2                oEV051711
         K17V01W KC2017 11 12.16227 01 34 45.62 +43 34 48.4                oEV051711
         K17V01W KC2017 11 12.16593 01 34 45.36 +43 34 37.6                oEV051711
    
    Observer details:
    711 McDonald Observatory.  Observer J. G. Ries.  2.1-m reflector + CCD + focal
        reducer.
    G96 Mt. Lemmon Survey.  Observers G. J. Leonard, D. C. Fuls.  Measurers
        E. J. Christensen, D. C. Fuls, A. R. Gibbs, A. D. Grauer, J. A. Johnson,
        R. A. Kowalski, S. M. Larson, G. J. Leonard, R. G. Matheny, R. L. Seaman,
        F. C. Shelly.  1.5-m reflector + 10K CCD.
    H01 Magdalena Ridge Observatory, Socorro.  Observers W. H. Ryan, E. V. Ryan.
        Measurer W. H. Ryan.  2.4-m f/8.9 reflector + CCD.
    H21 Astronomical Research Observatory, Westfield.  Observer R. Holmes.
        Measurers S. Foglia, L. Buzzi, T. Linder, R. Holmes.  0.76-m f/3.0
        astrograph + CCD.
    I52 Steward Observatory, Mt. Lemmon Station.  Observer R. G. Matheny.
        Measurers E. J. Christensen, D. C. Fuls, A. R. Gibbs, A. D. Grauer,
        J. A. Johnson, R. A. Kowalski, S. M. Larson, G. J. Leonard, R. G. Matheny,
        R. L. Seaman, F. C. Shelly.  1.0-m reflector + CCD.
    V03 Big Water.  Observer D. Rankin.  0.30-m reflector + CCD.
    
    Orbital elements:
    2017 VW1                                                 Earth MOID = 0.1943 AU
    Epoch 2017 Sept. 4.0 TT = JDT 2458000.5                 MPC
    M  16.41645              (2000.0)            P               Q
    n   0.62188511     Peri.    0.12917     +0.21485181     +0.95786262
    a   1.3593437      Node   282.28015     -0.89623064     +0.11581033
    e   0.5483066      Incl.   11.24991     -0.38808418     +0.26284439
    P   1.58           H   20.5           G   0.15           U   9
    Residuals in seconds of arc
    171109 G96  2.2+  0.3+    171110 V03  0.3+  0.1+    171111 711  0.0   0.2+
    171109 G96  0.3-  0.2-    171110 H21  0.1+  0.0     171111 711  0.0   0.1+
    171109 G96  0.6-  0.2+    171110 H21  0.2+  0.0     171111 G96  0.1-  0.2-
    171109 G96  0.5-  0.0     171110 H01  0.1-  0.1-    171111 G96  0.2+  0.1-
    171109 G96  0.3-  0.1-    171110 H21  0.1+  0.2-    171111 G96  0.0   0.1+
    171109 G96  0.2-  0.2-    171110 H01  0.0   0.0     171111 G96  0.2+  0.0
    171109 G96  0.5-  0.2+    171110 H01  0.0   0.0     171112 I52  0.1+  0.1+
    171109 H01  0.1-  0.1-    171110 H01  0.1-  0.0     171112 I52  0.1-  0.3-
    171109 H01  0.1-  0.2-    171111 I52  0.2+  0.0     171112 I52  0.0   0.1-
    171109 H01  0.0   0.1+    171111 711  0.2+  0.3+    171112 I52  0.2-  0.2-
    171109 H01  0.1-  0.1+    171111 I52  0.6+  0.2-    171112 711  0.1-  0.2+
    171110 V03  0.2+  0.6+    171111 I52  0.1+  0.2-    171112 711  0.2-  0.2+
    171110 V03  0.4-  0.3-    171111 I52  0.5-  0.2-    171112 711  0.2-  0.4+
    
    Ephemeris:
    2017 VW1                 a,e,i = 1.36, 0.55, 11                  q = 0.6140
    Date    TT    R. A. (2000) Decl.     Delta      r     Elong.  Phase     V
    2017 10 14    04 29 29.6 +72 56 03   0.2724  1.1166   109.1    57.6    20.0
    ...
    2017 10 29    02 06 35.5 +57 35 00   0.3308  1.2518   135.8    33.6    20.0
    ...
    2017 11 06    01 43 33.5 +49 11 06   0.3808  1.3199   144.5    25.9    20.2
    ...
    2017 11 12    01 34 55.0 +43 42 59   0.4272  1.3689   147.3    23.0    20.4
    2017 11 13    01 33 57.2 +42 52 59   0.4356  1.3769   147.4    22.8    20.5
    2017 11 14    01 33 06.2 +42 04 21   0.4443  1.3849   147.5    22.6    20.5
    ...
    2017 11 20    01 30 02.0 +37 40 43   0.5005  1.4316   146.3    22.5    20.9
    ...
    2017 11 28    01 30 05.3 +32 59 51   0.5858  1.4913   141.7    24.2    21.3
    ...
    2017 12 13    01 38 12.9 +27 09 19   0.7727  1.5947   129.9    28.2    22.2
    
    A. U. Tomatic                (C) Copyright 2017 MPC           M.P.E.C. 2017-V51
    

    Read MPEC 2017-V50 Read MPEC 2017-V52


    MPEC number:

    Enter an MPEC number in one of the following forms:

    • 1997-B01 (the full form)
    • J97B01 (the packed version of the full form)
    • B01 (the abbreviated form)